{"data":{"norad_id":68462,"epoch":"2026-09-19T04:29:54.333024Z","epoch_age_seconds":182332,"freshness":"STALE","line1":"1 68462U 26067AY  26262.18743441  .00004835  00000+0  22935-3 0  9990","line2":"2 68462  97.4651 219.5222 0004863  72.2540 287.9225 15.19740440 26215","mean_motion":15.1974044,"eccentricity":0.0004863,"inclination_deg":97.4651,"raan_deg":219.5222,"arg_perigee_deg":72.254,"mean_anomaly_deg":287.9225,"bstar":0.00022935,"rev_number":2621,"period_min":94.753022430593,"perigee_km":503.27635230917,"apogee_km":509.97247125827,"semimajor_km":6884.7614117837,"source":"CELESTRAK","updated_at":"2026-09-20T09:00:24.237185Z"}}